Temperature
20 20 20 20 20 20 20 20 19 19 19 19 19 19 19 19 19 19 19 19 19 19 19 19 19 19 19 18 18 18 18 18 18 18 18 18 18 18 18 18 18 18 18
20 20 20 20 20 20 20 19 19 19 19 19 19 19 19 19 19 19 19 19 19 19 19 19 19 19 19 18 18 18 18 18 18 18 18 18 18 18 18 18 18 18 18
21 20 20 20 20 20 20 19 19 19 19 19 19 19 19 19 19 19 19 19 19 19 19 19 19 19 18 18 18 18 18 18 18 18 18 18 18 18 18 18 18 18 18
21 20 20 20 20 20 20 19 19 19 19 19 19 19 19 19 19 19 19 19 19 19 19 19 19 19 18 18 18 18 18 18 18 18 18 18 18 18 18 18 18 18 18
21 21 20 20 20 20 20 19 19 19 19 19 19 19 19 19 19 19 19 19 19 19 19 19 19 18 18 18 18 18 18 18 18 18 18 18 18 18 18 18 18 18 18
21 21 21 21 20 20 20 19 19 19 19 19 19 19 19 19 19 19 19 19 19 19 18 19 19 18 18 18 18 18 18 18 18 18 18 18 18 18 18 18 18 18 17
21 21 21 21 20 20 20 20 19 19 19 19 19 19 19 19 19 19 19 19 19 19 18 18 19 19 18 18 18 18 18 18 18 18 18 18 18 18 18 18 18 18 17
21 21 21 21 20 20 20 20 19 19 19 19 19 19 19 19 19 19 19 19 19 19 19 19 19 19 19 19 19 19 18 18 18 18 18 18 18 18 18 18 18 17 17
22 21 21 21 20 20 20 20 20 20 20 19 19 19 19 19 19 19 19 19 19 18 18 19 19 19 19 19 19 19 19 19 18 18 18 18 18 18 18 18 18 17 17
22 21 21 20 20 20 20 20 20 20 20 19 19 19 19 19 19 19 19 19 19 19 19 19 19 19 19 19 19 19 19 19 18 18 18 18 18 18 18 18 18 17 17
22 22 21 21 20 20 20 20 20 19 19 19 19 19 19 19 19 19 19 19 19 19 19 19 19 19 19 19 19 19 19 19 19 18 19 18 18 18 18 18 17 17 17
22 22 21 21 21 20 20 20 20 19 19 19 19 19 19 19 19 19 19 19 19 19 19 19 19 19 19 19 19 19 19 19 19 19 19 19 18 18 18 18 17 17 17
22 22 22 21 21 20 20 20 20 20 19 19 19 19 19 19 19 19 19 19 19 19 19 19 19 19 19 19 19 19 19 19 19 19 19 19 18 18 18 18 18 17 17
22 22 22 21 21 21 20 20 20 20 20 19 19 19 19 19 19 19 19 19 19 19 19 19 19 19 19 19 19 19 19 19 19 19 19 19 18 18 18 18 18 18 18
22 22 21 21 21 20 20 20 20 20 20 19 19 19 19 19 19 19 19 19 19 19 19 19 19 19 19 19 19 19 19 19 19 19 18 18 18 18 18 18 18 18 18
22 22 21 21 20 20 20 20 20 20 20 19 19 19 19 19 19 19 19 19 19 19 19 19 19 19 19 19 19 19 19 19 19 19 18 18 18 18 18 18 18 18 18
22 21 21 21 20 20 20 20 20 20 20 19 19 19 19 19 19 19 19 19 19 19 19 19 19 19 19 19 19 19 19 19 18 18 18 18 18 18 18 18 18 18 18
22 21 21 21 20 20 20 20 20 20 20 20 19 19 19 19 19 19 19 19 19 19 19 19 19 19 19 19 19 19 19 19 19 18 18 18 18 18 18 18 18 18 18
22 21 21 21 20 20 20 20 20 20 20 20 19 19 19 19 19 19 19 19 19 19 19 19 19 19 19 19 19 19 19 19 19 19 18 18 18 18 18 18 18 18 18
22 21 21 21 21 20 20 20 20 20 20 20 20 19 19 19 19 19 19 19 19 19 19 19 19 19 19 19 19 19 19 19 19 19 19 19 18 18 18 18 18 18 18
22 21 21 21 20 20 20 20 20 20 20 20 20 20 19 19 19 19 19 19 19 19 19 19 19 19 19 19 19 19 19 19 19 19 19 19 19 18 18 18 18 18 18
22 22 21 21 21 21 20 20 20 20 20 20 20 20 19 19 19 19 19 19 19 19 19 19 19 19 19 19 19 19 19 19 20 19 19 19 19 19 18 18 18 18 18
22 22 21 21 21 21 21 20 20 20 20 20 20 20 20 19 19 19 19 19 19 19 19 19 19 19 19 19 19 19 19 19 19 19 19 19 19 19 19 18 18 18 18
23 22 22 21 21 21 21 20 20 20 20 20 20 20 20 20 19 19 19 19 19 19 19 19 19 19 19 19 19 19 19 19 19 19 19 19 19 19 19 19 18 18 18
24 23 22 22 21 21 21 21 20 20 20 20 20 20 20 20 19 19 19 19 19 19 19 19 19 19 19 19 19 19 19 19 19 19 19 19 19 19 19 19 18 18 18
24 23 22 22 21 21 21 21 21 20 20 20 20 20 20 20 19 19 19 19 19 19 19 19 19 19 19 19 19 19 19 19 19 19 19 19 19 19 19 19 18 18 18
Wind_Speed
10 11 13 13 12 12 12 12 13 13 13 13 12 12 12 12 13 14 15 17 18 18 18 18 19 19 19 19 19 19 18 18 18 17 16 15 14 13 12 12 13 13 14
11 12 14 13 12 12 12 12 12 13 13 13 13 12 12 13 13 15 16 17 18 18 18 19 19 19 19 19 19 18 17 16 16 16 16 15 13 12 12 12 12 13 13
13 12 13 12 12 12 12 12 12 13 13 13 13 13 14 14 15 16 16 17 18 18 18 18 19 19 19 19 18 17 16 15 14 15 15 13 12 12 13 13 14 14 13
13 12 12 13 12 12 12 12 12 12 13 13 13 14 14 15 16 17 17 17 17 18 18 18 19 19 18 18 16 15 15 14 13 13 11 11 12 13 13 13 13 13 13
13 13 13 13 12 12 12 12 12 13 13 13 14 14 14 16 17 17 17 17 17 17 17 17 17 17 17 16 15 14 13 12 11 9 11 11 11 13 13 13 12 12 12
13 13 13 13 12 12 12 12 12 12 13 13 13 14 15 16 16 16 17 17 17 17 17 16 16 16 15 14 13 12 11 10 7 9 12 12 11 12 12 12 12 11 11
13 13 14 13 12 12 12 11 12 12 12 12 13 14 15 16 16 16 16 16 16 16 16 15 15 15 14 13 11 9 8 6 5 10 11 11 11 12 11 11 11 11 10
13 13 14 14 13 12 11 11 11 11 11 12 13 14 15 15 15 15 15 15 15 15 15 14 13 13 12 10 8 7 5 3 7 11 12 12 12 12 11 11 10 10 9
12 12 12 13 12 11 10 11 11 11 12 12 13 14 14 15 14 14 14 14 14 13 13 12 12 11 10 8 7 5 4 4 3 9 12 11 12 12 11 11 10 10 9
10 11 10 11 11 10 10 10 11 12 12 13 13 14 13 13 13 13 13 13 13 12 11 11 10 9 8 7 7 6 4 4 4 10 11 12 13 12 12 11 10 10 9
9 9 9 9 9 9 10 11 11 11 11 11 11 12 11 9 10 11 12 13 12 11 11 10 10 9 8 8 8 7 6 4 5 9 11 14 14 12 11 11 10 9 9
7 9 8 7 7 6 8 9 8 8 9 7 7 8 7 6 7 10 11 12 11 11 11 11 11 10 9 7 8 8 5 5 6 9 11 15 14 12 11 10 10 9 9
7 7 9 8 6 5 5 6 5 6 6 7 6 6 6 5 7 7 7 8 9 10 8 10 10 8 8 5 5 5 3 3 5 8 12 15 14 12 11 10 9 9 8
6 7 8 8 6 5 4 4 4 4 4 5 5 6 4 2 3 3 3 4 5 5 4 5 4 4 4 5 4 3 3 4 6 9 12 14 13 12 11 10 10 9 8
6 7 8 7 6 4 3 2 4 4 4 6 5 5 4 3 3 3 1 1 3 4 4 3 3 3 2 2 3 3 3 4 6 9 10 13 13 12 11 11 10 9 9
7 7 7 7 6 5 3 2 2 4 4 5 5 5 4 3 3 2 2 1 2 3 3 3 3 3 2 2 2 2 2 4 6 8 11 11 12 12 12 11 10 10 10
7 7 6 7 7 4 4 2 3 3 4 3 5 6 4 4 3 2 1 1 2 2 3 3 2 2 3 3 3 2 2 3 4 5 9 10 10 11 12 12 11 11 10
8 7 5 6 8 5 3 2 2 3 4 3 4 5 4 4 3 2 1 1 2 2 2 2 2 1 1 2 2 2 3 3 4 4 6 9 10 10 11 12 12 11 11
8 7 5 5 7 6 4 3 2 3 3 2 3 4 4 3 3 1 1 1 1 2 2 2 2 1 1 1 2 3 2 3 4 4 5 7 9 10 10 12 13 11 11
9 7 6 5 5 5 4 3 2 3 3 2 3 4 4 2 3 1 1 1 1 2 2 2 1 0 1 1 1 1 2 3 3 4 4 4 6 8 9 11 11 10 12
9 8 7 6 6 4 3 3 3 3 2 3 3 5 4 3 3 1 1 1 2 1 2 2 2 1 1 1 1 0 1 2 2 3 3 3 3 4 6 8 9 8 8
10 9 8 7 7 6 4 3 3 3 2 3 2 4 4 3 3 3 2 1 1 1 2 1 1 1 1 1 1 0 0 0 1 3 3 3 3 3 3 6 7 7 7
11 10 9 7 7 7 5 3 3 3 1 2 3 3 3 3 3 1 1 1 1 1 2 2 2 2 1 0 0 1 0 0 1 0 2 2 2 2 3 3 6 6 6
12 12 9 8 7 6 5 4 4 4 3 2 3 3 3 3 3 3 2 1 1 1 1 2 2 2 1 1 1 1 0 1 0 0 1 1 3 3 3 2 3 5 6
12 12 10 9 8 7 6 5 4 3 3 2 2 4 3 3 3 2 2 1 1 1 0 0 0 0 1 1 1 1 1 1 1 1 1 1 2 2 3 3 1 2 5
11 11 11 10 8 7 6 5 4 4 3 2 2 3 3 2 2 2 2 1 1 1 1 1 1 1 1 1 1 1 0 0 0 1 1 2 2 2 2 2 3 2 4
Wind_Direction
82 82 79 75 73 70 70 72 73 72 73 76 81 82 87 97 105 109 111 113 115 115 115 114 115 115 118 120 122 123 122 122 121 121 119 117 115 116 117 120 114 105 109
90 89 84 77 74 72 71 75 76 74 73 76 81 84 85 94 104 110 111 113 114 114 114 115 114 113 116 118 119 121 123 126 127 128 126 121 117 116 115 114 114 112 115
95 94 87 79 76 75 75 77 77 76 75 78 80 85 87 94 100 107 109 111 111 112 114 115 115 116 116 118 121 124 126 132 138 141 136 125 119 116 114 112 113 116 116
96 93 88 87 81 77 78 78 79 79 79 81 83 88 90 96 98 103 107 108 109 111 114 115 116 117 117 120 125 130 134 141 147 149 140 125 123 121 118 118 120 121 120
96 96 96 93 87 83 81 81 80 81 83 85 88 91 93 97 102 104 107 108 108 110 113 116 117 118 120 124 128 133 139 146 153 143 120 117 118 127 126 126 126 126 126
104 100 102 99 96 90 86 85 83 82 86 88 91 92 96 100 103 106 107 108 109 110 112 112 116 118 121 126 132 138 145 153 163 136 123 121 124 132 132 131 131 132 134
106 106 109 108 103 97 93 89 87 87 89 93 95 95 98 100 103 106 107 108 109 109 111 113 115 118 121 127 135 143 149 156 167 123 116 114 122 130 134 137 139 137 138
110 110 114 116 108 102 99 96 93 93 96 100 105 103 101 101 104 107 110 109 111 113 115 118 120 122 125 132 142 151 160 177 143 118 115 118 130 137 140 142 144 144 144
111 114 122 124 118 113 109 105 102 103 104 107 110 109 107 107 107 109 113 116 118 120 122 126 129 131 137 147 160 172 182 215 146 130 125 127 137 144 147 148 149 149 148
111 115 122 124 126 124 122 121 115 114 113 115 117 115 113 114 117 120 120 122 127 130 134 138 143 147 154 165 179 196 216 243 176 131 126 134 141 145 148 150 151 151 155
105 109 115 115 125 130 126 130 133 127 122 123 124 127 130 128 127 126 123 134 140 145 150 154 159 164 172 186 197 211 229 221 143 122 126 141 146 147 152 156 161 161 163
112 113 109 110 110 113 112 125 136 127 133 132 132 142 138 122 120 122 134 147 154 160 165 172 177 181 192 195 202 214 223 186 140 126 133 146 148 152 158 162 167 170 171
118 110 109 103 99 97 102 122 123 122 130 126 123 119 108 120 128 132 141 153 168 175 181 175 188 199 199 196 186 191 192 145 123 125 140 150 151 157 162 167 171 173 174
121 109 107 106 91 71 72 94 113 116 118 115 112 100 107 104 110 119 140 153 170 172 166 170 177 183 176 169 169 173 150 127 115 121 144 153 157 163 167 172 176 179 180
123 114 103 101 94 87 64 65 99 94 102 108 106 99 95 100 83 88 87 107 145 141 144 155 152 169 161 155 164 142 118 119 126 130 144 161 165 169 174 178 180 185 189
128 117 115 115 107 101 97 73 97 110 111 110 109 105 105 103 100 98 112 119 132 131 137 150 157 146 135 137 155 156 150 139 140 141 148 166 173 176 181 183 185 189 192
131 122 126 128 124 126 123 142 121 123 122 118 117 117 115 112 117 117 127 139 132 133 133 136 129 140 152 164 158 158 146 134 137 147 155 165 174 182 186 188 192 195 197
135 131 148 141 133 136 131 138 115 109 111 114 121 128 130 122 124 133 126 118 135 133 130 139 128 128 145 152 162 177 164 155 151 160 167 173 173 180 189 196 198 201 205
140 143 152 131 136 144 143 146 133 109 102 120 127 127 136 143 133 132 100 96 149 139 140 139 117 113 167 142 182 180 185 167 162 174 178 180 174 174 176 189 197 202 206
145 147 151 148 141 146 146 152 149 127 142 150 135 132 141 155 134 144 130 98 89 82 90 95 102 151 199 200 240 172 189 178 173 175 181 178 176 180 179 176 186 202 211
150 149 153 160 151 158 159 162 158 157 172 158 155 143 148 159 143 135 78 91 108 115 127 142 146 187 176 150 169 236 211 194 180 168 174 180 178 175 176 171 177 189 201
155 154 157 164 162 170 171 175 171 158 169 162 139 135 152 160 164 166 149 189 130 148 144 165 149 182 217 165 163 163 251 281 286 208 179 189 192 184 191 192 183 189 197
161 162 170 170 164 176 172 173 176 151 173 153 145 154 166 163 165 108 152 198 193 195 172 190 185 191 211 242 165 169 164 193 269 231 208 185 177 188 206 201 189 188 200
169 168 166 164 162 167 172 182 181 170 181 179 163 156 160 171 173 173 193 195 209 209 176 204 172 212 204 228 246 219 180 117 114 312 276 195 190 203 214 232 201 184 187
172 169 165 162 162 165 177 189 196 192 184 169 153 147 164 177 181 180 171 172 190 168 176 263 163 242 252 268 254 241 232 213 206 184 255 268 237 209 200 206 204 183 175
168 165 165 159 161 165 175 188 194 209 193 178 170 162 174 173 182 179 157 160 164 173 197 212 205 196 237 280 304 303 287 46 252 254 264 262 267 244 203 192 190 179 176
Height
1492 1491 1490 1489 1488 1487 1487 1486 1485 1485 1484 1484 1483 1483 1482 1482 1483 1486 1488 1491 1493 1496 1498 1500 1502 1504 1508 1511 1514 1518 1521 1524 1527 1529 1532 1534 1536 1538 1540 1542 1543 1544 1545
1494 1492 1492 1491 1490 1490 1489 1488 1488 1487 1486 1486 1485 1485 1484 1483 1485 1487 1490 1493 1496 1498 1500 1503 1505 1508 1511 1514 1517 1520 1523 1526 1529 1531 1533 1536 1538 1540 1541 1543 1544 1545 1546
1495 1494 1493 1493 1492 1492 1491 1490 1490 1489 1488 1488 1488 1487 1487 1487 1488 1490 1492 1495 1499 1501 1503 1506 1508 1511 1514 1516 1519 1522 1525 1528 1530 1532 1535 1537 1539 1541 1543 1544 1545 1546 1547
1496 1496 1495 1495 1494 1494 1493 1492 1492 1491 1491 1491 1490 1490 1490 1490 1491 1493 1495 1499 1501 1503 1506 1509 1511 1514 1517 1519 1522 1525 1527 1530 1531 1534 1536 1538 1540 1542 1543 1545 1546 1547 1548
1498 1498 1497 1497 1496 1496 1495 1494 1494 1494 1493 1493 1493 1493 1493 1494 1495 1497 1499 1502 1504 1506 1509 1512 1515 1517 1519 1522 1525 1527 1530 1532 1534 1536 1538 1540 1541 1543 1544 1546 1547 1548 1549
1500 1500 1499 1499 1499 1498 1497 1497 1496 1496 1496 1496 1496 1496 1497 1498 1499 1501 1503 1505 1508 1510 1512 1515 1517 1520 1522 1525 1527 1530 1532 1534 1536 1539 1540 1541 1542 1544 1545 1546 1547 1549 1550
1502 1502 1501 1501 1501 1500 1499 1499 1498 1497 1497 1498 1498 1499 1500 1502 1503 1505 1507 1509 1511 1514 1516 1518 1521 1523 1525 1527 1530 1532 1534 1536 1538 1540 1541 1542 1543 1544 1545 1547 1548 1549 1550
1503 1503 1503 1503 1503 1502 1502 1501 1500 1499 1498 1498 1500 1502 1503 1505 1507 1509 1511 1513 1515 1517 1519 1521 1524 1526 1528 1530 1532 1534 1536 1537 1540 1541 1542 1543 1544 1545 1546 1547 1548 1549 1550
1505 1505 1505 1505 1505 1504 1504 1503 1502 1500 1500 1501 1503 1505 1507 1509 1510 1512 1514 1516 1518 1520 1522 1524 1526 1528 1530 1532 1534 1536 1537 1539 1541 1541 1542 1543 1544 1545 1546 1547 1548 1549 1550
1507 1507 1507 1507 1507 1506 1505 1505 1504 1504 1504 1505 1507 1509 1511 1512 1514 1515 1517 1519 1520 1522 1524 1527 1529 1530 1532 1534 1536 1538 1539 1541 1542 1542 1543 1544 1544 1545 1546 1547 1548 1549 1550
1509 1509 1510 1510 1509 1508 1507 1506 1507 1508 1509 1510 1511 1513 1514 1515 1517 1518 1520 1521 1523 1524 1526 1528 1530 1532 1534 1536 1538 1539 1540 1541 1542 1543 1543 1544 1545 1545 1546 1547 1548 1549 1550
1510 1511 1512 1512 1511 1511 1510 1509 1510 1512 1513 1514 1515 1517 1518 1519 1520 1521 1522 1524 1525 1526 1528 1530 1532 1534 1535 1537 1539 1540 1541 1542 1543 1543 1544 1544 1545 1546 1546 1547 1548 1549 1550
1512 1513 1513 1513 1513 1513 1513 1513 1514 1516 1516 1518 1519 1520 1520 1521 1522 1523 1524 1525 1526 1527 1529 1531 1533 1535 1536 1538 1539 1541 1541 1543 1544 1544 1544 1545 1545 1546 1546 1547 1548 1549 1550
1513 1514 1514 1515 1515 1515 1515 1516 1517 1518 1519 1520 1521 1521 1522 1523 1524 1524 1525 1526 1527 1529 1531 1532 1534 1535 1537 1539 1540 1541 1542 1543 1543 1543 1544 1545 1545 1546 1546 1547 1548 1548 1549
1513 1515 1515 1516 1516 1516 1517 1518 1519 1520 1521 1522 1522 1523 1524 1524 1525 1526 1526 1528 1529 1530 1532 1533 1534 1536 1537 1539 1540 1541 1542 1543 1544 1544 1544 1545 1545 1546 1546 1547 1547 1548 1549
1514 1515 1516 1516 1517 1517 1518 1519 1521 1522 1523 1524 1524 1524 1525 1526 1526 1527 1528 1529 1530 1531 1532 1533 1535 1536 1537 1539 1540 1541 1542 1543 1543 1544 1544 1544 1545 1545 1546 1546 1547 1547 1548
1514 1515 1516 1517 1517 1518 1519 1520 1522 1523 1524 1525 1525 1526 1526 1527 1528 1528 1529 1530 1531 1532 1533 1534 1535 1536 1537 1538 1540 1541 1542 1542 1543 1543 1544 1544 1545 1545 1546 1546 1547 1547 1547
1513 1515 1516 1517 1518 1519 1520 1521 1523 1524 1525 1526 1526 1527 1527 1528 1529 1529 1530 1531 1532 1533 1534 1534 1535 1536 1538 1538 1539 1540 1541 1542 1542 1543 1543 1544 1544 1544 1545 1546 1546 1546 1547
1513 1514 1516 1517 1518 1519 1520 1521 1523 1525 1526 1527 1527 1528 1528 1529 1529 1530 1530 1531 1532 1533 1534 1535 1535 1536 1538 1538 1539 1540 1541 1541 1542 1542 1542 1543 1543 1544 1544 1544 1545 1545 1545
1512 1514 1515 1517 1518 1519 1520 1522 1523 1525 1526 1527 1528 1528 1529 1529 1530 1530 1531 1531 1532 1533 1534 1535 1535 1536 1537 1538 1539 1540 1540 1541 1541 1541 1542 1542 1542 1543 1543 1543 1543 1544 1544
1512 1513 1514 1516 1517 1519 1520 1522 1523 1525 1526 1527 1528 1529 1529 1529 1530 1530 1531 1531 1532 1533 1533 1534 1535 1536 1537 1538 1538 1539 1539 1540 1540 1540 1541 1541 1542 1542 1543 1543 1542 1542 1542
1510 1511 1513 1515 1516 1518 1520 1521 1523 1525 1526 1527 1528 1529 1529 1530 1530 1531 1531 1532 1532 1532 1533 1534 1534 1535 1536 1537 1537 1538 1539 1540 1539 1540 1540 1540 1541 1541 1542 1542 1542 1542 1541
1509 1510 1512 1514 1515 1517 1519 1521 1523 1524 1526 1527 1528 1529 1529 1530 1530 1530 1531 1531 1532 1532 1533 1533 1533 1534 1535 1536 1536 1537 1538 1538 1538 1539 1539 1539 1540 1540 1541 1541 1541 1540 1540
1507 1509 1511 1513 1514 1516 1518 1520 1522 1524 1525 1527 1528 1528 1529 1530 1530 1530 1531 1531 1531 1532 1532 1532 1533 1533 1534 1535 1535 1536 1537 1537 1538 1539 1539 1539 1539 1539 1539 1539 1539 1538 1537
1505 1507 1509 1511 1513 1515 1517 1519 1521 1523 1525 1526 1527 1528 1528 1529 1529 1530 1530 1530 1531 1531 1531 1531 1532 1532 1533 1534 1534 1535 1536 1536 1537 1537 1537 1538 1538 1538 1537 1536 1537 1537 1536
1503 1506 1508 1510 1512 1514 1516 1518 1520 1522 1523 1524 1526 1526 1527 1528 1529 1529 1530 1530 1530 1530 1530 1530 1531 1531 1532 1533 1533 1534 1534 1535 1535 1536 1536 1536 1536 1536 1536 1535 1535 1535 1534